Regional Weather Roundup
Issued by NWS

Home | Current Version | Previous Version | Graphics & Text | Print | Product List | Glossary On
Versions: 1 2 3 4 5 6 7 8 9 10 11 12 13 14 15 16 17 18 19 20 21 22 23 24 25 26 27 28 29 30 31 32 33 34 35 36 37 38 39 40 41 42 43 44 45 46 47 48 49 50
000
ASUS43 KLSX 030107
RWRMO

WEATHER SUMMARY FOR MISSOURI
NATIONAL WEATHER SERVICE SPRINGFIELD MO
800 PM CDT TUE JUN 02 2015

NOTE: "FAIR" INDICATES FEW OR NO CLOUDS BELOW 12,000 FEET WITH NO
       SIGNIFICANT WEATHER AND/OR OBSTRUCTIONS TO VISIBILITY.
       CURRENT SKY AND/OR WEATHER CONDITIONS ARE NOT AVAILABLE FOR
       CHILLICOTHE AND FARMINGTON.

MOZ001>031-035>038-043-044-053-054-030200-
...NORTHERN AND WESTERN MISSOURI...

CITY           SKY/WX    TMP DP  RH WIND       PRES   REMARKS
KANSAS CTY INT MOCLDY    71  60  68 SE9       29.97R
KANSAS C DTWN  MOCLDY    73  59  61 SE7       29.95R
LEE`S SUMMIT   MOCLDY    71  58  63 SE7       29.97S
ST JOSEPH      CLOUDY    68  60  75 SE8       29.96S
CHILLICOTHE      N/A     70  56  61 SE5       30.00F
KIRKSVILLE     PTCLDY    66  58  75 SE10      30.03F

$$
MOZ066>068-077>081-088>096-101>105-030200-
...SOUTHWEST MISSOURI...

CITY           SKY/WX    TMP DP  RH WIND       PRES   REMARKS
SPRINGFIELD    CLEAR     72  58  61 SE7       29.99S
JOPLIN         PTCLDY    75  67  76 VRB5      29.96S

$$
MOZ032>034-039>042-045>050-055>058-069>072-030200-
...CENTRAL MISSOURI...

CITY           SKY/WX    TMP DP  RH WIND       PRES   REMARKS
COLUMBIA       PTCLDY    66  58  75 SE5       30.03F
JEFFERSON CITY PTCLDY    67  57  70 SE9       30.02F
ROLLA          CLOUDY    63  56  78 E6        30.03F
SEDALIA        PTCLDY    68  58  70 E7        30.01S
WHITEMAN AFB   MOCLDY    69  59  71 SE7       29.98F
WARRENSBURG    MOCLDY    70  57  64 E8        29.98F
OSAGE BEACH    CLEAR     66  55  68 E7        30.02S

$$
MOZ051-052-059>065-030200-
...EAST CENTRAL MISSOURI...

CITY           SKY/WX    TMP DP  RH WIND       PRES   REMARKS
ST LOUIS INTL  MOCLDY    70  56  61 E9        30.05R
SPIRIT OF STL  MOCLDY    68  60  75 S3        30.04R
ST CHARLES     PTCLDY    69  58  67 SE6       30.03S

$$
MOZ072>076-082>087-097>100-106>115-030200-
...SOUTH CENTRAL AND SOUTHEAST MISSOURI...

CITY           SKY/WX    TMP DP  RH WIND       PRES   REMARKS
CAPE GIRARDEAU CLOUDY    64  58  80 NE5       30.05R
FARMINGTON     CLOUDY    63  57  82 E5        30.10S
POPLAR BLUFF   CLOUDY    64  57  78 NW3       30.05R
WEST PLAINS    CLEAR     66  58  75 NE5       30.05R

$$


USA.gov is the U.S. government's official web portal to all federal, state and local government web resources and services.